Holbrook, NY

1:58 AM EDT on October 01, 2016 (GMT -0400)
Long Island Mac Arthur

Weather History for KISP - November, 2013

Change the Weather History Date:

Thursday, November 7, 2013

  Actual Average Record
Temperature  
Mean Temperature 53 °F 48 °F  
Max Temperature 63 °F 56 °F 66 °F (1996)
Min Temperature 42 °F 39 °F 27 °F (2002)
Degree Days  
Heating Degree Days 12 17  
Month to date heating degree days 103 115  
Since 1 July heating degree days 425 535  
Cooling Degree Days 0 0  
Month to date cooling degree days 0 0  
Year to date cooling degree days 957 787  
Growing Degree Days 2 (Base 50)    
Moisture  
Dew Point 53 °F    
Average Humidity 73    
Maximum Humidity 97    
Minimum Humidity 49    
Precipitation  
Precipitation 0.15 in 0.12 in 0.98 in (1995)
Month to date precipitation 0.19 0.81  
Year to date precipitation 30.80 39.32  
Snow  
Snow 0.00 in 0.00 in 1.70 in (2012)
Month to date snowfall 0.0 0.0  
Since 1 July snowfall 0.0 0.0  
Snow Depth 0.00 in    
Sea Level Pressure  
Sea Level Pressure 29.87 in    
Wind  
Wind Speed 11 mph (WSW)    
Max Wind Speed 23 mph    
Max Gust Speed 30 mph    
Visibility 7 miles    
Events Fog , Rain    
T = Trace of Precipitation, MM = Missing Value Source: NWS Daily Summary

Daily Weather History Graph

Daily Weather History Graph

Search for Another Location

Airport or City:

Trip Planner

Search our weather history database for the weather conditions in past years. The results will help you decide how hot, cold, wet, or windy it might be!

Date:

Astronomy

Nov. 07, 2013 Rise Set
Actual Time 6:30 AM EST 4:41 PM EST
Civil Twilight 6:01 AM EST 5:10 PM EST
Nautical Twilight 5:28 AM EST 5:43 PM EST
Astronomical Twilight 4:56 AM EST 6:15 PM EST
Moon 10:36 AM EST (11/7) 8:49 PM EST (11/7)
Length of Visible Light 11h 09m
Length of Day
10h 11m
Waxing Crescent, 22% of the Moon is Illuminated
Nov 7
Waxing Crescent
Nov 10
First Quarter
Nov 17
Full
Nov 25
Last Quarter
Dec 2
New

Hourly Weather History & Observations

Time (EST) Temp. Windchill Dew Point Humidity Pressure Visibility Wind Dir Wind Speed Gust Speed Precip Events Conditions
12:39 AM 60.8 °F - 55.4 °F 82% 30.06 in 10.0 mi SSW 10.4 mph - N/A   Overcast
12:56 AM 60.1 °F - 55.9 °F 86% 30.05 in 10.0 mi SSW 6.9 mph 17.3 mph N/A   Overcast
1:37 AM 60.8 °F - 55.4 °F 82% 30.03 in 10.0 mi SSW 6.9 mph - N/A   Overcast
1:45 AM 60.8 °F - 55.4 °F 82% 30.02 in 10.0 mi South 8.1 mph - N/A   Overcast
1:56 AM 60.1 °F - 55.9 °F 86% 30.02 in 10.0 mi South 10.4 mph - N/A   Overcast
2:56 AM 60.1 °F - 57.0 °F 90% 29.99 in 10.0 mi SSW 13.8 mph - N/A   Overcast
3:56 AM 60.1 °F - 57.9 °F 93% 29.96 in 10.0 mi SSW 10.4 mph - 0.00 in   Overcast
4:07 AM 60.8 °F - 57.2 °F 88% 29.95 in 9.0 mi SSW 11.5 mph - N/A   Overcast
4:56 AM 60.1 °F - 57.9 °F 93% 29.93 in 2.0 mi SSW 9.2 mph - 0.00 in   Overcast
5:07 AM 60.8 °F - 57.2 °F 88% 29.92 in 1.8 mi SW 13.8 mph 18.4 mph N/A   Overcast
5:14 AM 60.8 °F - 57.2 °F 88% 29.91 in 2.5 mi SW 12.7 mph - N/A   Overcast
5:21 AM 60.8 °F - 59.0 °F 94% 29.91 in 4.0 mi SW 10.4 mph 21.9 mph N/A   Overcast
5:56 AM 60.1 °F - 59.0 °F 96% 29.90 in 2.0 mi SW 11.5 mph - N/A   Overcast
6:22 AM 60.8 °F - 59.0 °F 94% 29.89 in 0.2 mi SSW 8.1 mph - 0.00 in Fog Light Drizzle
6:56 AM 60.1 °F - 59.0 °F 96% 29.88 in 0.2 mi SSW 10.4 mph - 0.00 in Fog Fog
7:19 AM 60.8 °F - 59.0 °F 94% 29.87 in 1.0 mi SSW 13.8 mph - N/A   Overcast
7:56 AM 60.1 °F - 59.0 °F 96% 29.88 in 0.5 mi SSW 9.2 mph - N/A Fog Fog
8:24 AM 60.8 °F - 60.8 °F 100% 29.86 in 3.0 mi SSW 12.7 mph 24.2 mph N/A   Overcast
8:54 AM 62.6 °F - 60.8 °F 94% 29.85 in 5.0 mi SW 15.0 mph 20.7 mph N/A   Mostly Cloudy
8:56 AM 62.1 °F - 60.1 °F 93% 29.85 in 5.0 mi SW 15.0 mph 23.0 mph N/A   Mostly Cloudy
9:56 AM 62.1 °F - 57.9 °F 86% 29.83 in 10.0 mi WSW 11.5 mph - N/A   Overcast
10:24 AM 62.6 °F - 57.2 °F 82% 29.82 in 10.0 mi SSW 9.2 mph - N/A   Overcast
10:54 AM 60.8 °F - 57.2 °F 88% 29.80 in 6.0 mi SW 8.1 mph - 0.01 in Rain Light Rain
10:56 AM 61.0 °F - 57.9 °F 90% 29.80 in 6.0 mi WSW 10.4 mph - 0.01 in Rain Light Rain
11:56 AM 61.0 °F - 57.9 °F 90% 29.76 in 5.0 mi WSW 9.2 mph - 0.04 in Rain Light Rain
12:56 PM 60.1 °F - 57.9 °F 93% 29.75 in 6.0 mi WSW 9.2 mph - 0.05 in Rain Light Rain
1:40 PM 60.8 °F - 57.2 °F 88% 29.74 in 7.0 mi WSW 6.9 mph - 0.02 in Rain Light Rain
1:53 PM 60.8 °F - 57.2 °F 88% 29.74 in 6.0 mi West 6.9 mph - 0.02 in Rain Light Rain
1:56 PM 60.1 °F - 57.9 °F 93% 29.74 in 6.0 mi West 5.8 mph - 0.02 in Rain Light Rain
2:35 PM 60.8 °F - 57.2 °F 88% 29.74 in 6.0 mi West 8.1 mph - 0.01 in Rain Light Rain
2:56 PM 59.0 °F - 55.9 °F 90% 29.76 in 4.0 mi WNW 17.3 mph 25.3 mph 0.01 in Rain Light Rain
3:19 PM 55.4 °F - 51.8 °F 88% 29.76 in 10.0 mi NW 9.2 mph - 0.01 in Rain Light Rain
3:56 PM 54.0 °F - 50.0 °F 86% 29.75 in 6.0 mi NW 5.8 mph - 0.01 in Rain Light Rain
4:56 PM 52.0 °F - 48.0 °F 86% 29.78 in 10.0 mi WNW 16.1 mph 20.7 mph 0.01 in Rain Light Rain
5:26 PM 51.8 °F - 46.4 °F 82% 29.79 in 10.0 mi WNW 12.7 mph - 0.00 in   Overcast
5:56 PM 51.1 °F - 46.0 °F 83% 29.80 in 10.0 mi NW 11.5 mph 20.7 mph 0.00 in   Overcast
6:56 PM 48.9 °F - 39.9 °F 71% 29.83 in 10.0 mi NNW 16.1 mph - N/A   Mostly Cloudy
7:56 PM 48.9 °F - 39.0 °F 69% 29.86 in 10.0 mi WNW 15.0 mph 23.0 mph N/A   Mostly Cloudy
8:56 PM 46.9 °F - 36.0 °F 66% 29.88 in 10.0 mi WNW 13.8 mph - N/A   Mostly Cloudy
9:56 PM 46.0 °F 40.2 °F 28.9 °F 51% 29.89 in 10.0 mi NW 12.7 mph 19.6 mph N/A   Partly Cloudy
10:56 PM 43.0 °F 39.5 °F 28.9 °F 58% 29.89 in 10.0 mi WNW 5.8 mph - N/A   Partly Cloudy
11:56 PM 44.1 °F 39.5 °F 27.0 °F 51% 29.89 in 10.0 mi WNW 8.1 mph - N/A   Partly Cloudy